Skip Page Navigation
NASA JPL Caltech
NASA Logo - Jet Propulsion Laboratory + View the NASA Portal
+ Near-Earth Object (NEO) Program
Search JPL
JPL Home Earth Solar System Stars & Galaxies Technology
JPL Solar System Dynamics
BODIES ORBITS EPHEMERIDES TOOLS PHYSICAL DATA DISCOVERY FAQ SITE MAP
JPL Small-Body Database Browser
Search: [ help ]  
(2009 EW)
Classification: Apollo [NEO]          SPK-ID: 3449121
Ephemeris | Orbit Diagram | Orbital Elements | Physical Parameters | Close-Approach Data ]

[ hide orbit diagram ]
Orbit Diagram
Note: Make sure you have Java enabled on your browser to see the applet. This applet is provided as a 3D orbit visualization tool. The applet was implemented using 2-body methods, and hence should not be used for determining accurate long-term trajectories (over several years or decades) or planetary encounter circumstances. For accurate long-term ephemerides, please instead use our Horizons system.
Orbit Viewer

Additional Notes: the orbits shown in the applet are color coded. The planets are white lines, and the asteroid/comet is a blue line. The bright white line indicates the portion of the orbit that is above the ecliptic plane, and the darker portion is below the ecliptic plane. Likewise for the asteroid/comet orbit, the light blue indicates the portion above the ecliptic plane, and the dark blue the portion below the ecliptic plane.

Orbit Viewer applet originally written and kindly provided by Osamu Ajiki (AstroArts), and further modified by Ron Baalke (JPL).


Orbital Elements at Epoch 2456400.5 (2013-Apr-18.0) TDB
Reference: JPL 8 (heliocentric ecliptic J2000)
 Element Value Uncertainty (1-sigma)   Units 
e .389191519918537 8.4139e-05  
a 1.257353968764385 0.00011549 AU
q .7680024665853692 3.5258e-05 AU
i 10.71342506200213 0.001933 deg
node 345.9208807413063 2.2881e-05 deg
peri 258.2204172331404 0.00015806 deg
M 292.9156112927582 0.137 deg
tp 2456496.462980511244
(2013-Jul-22.96298051)
0.20919 JED
period 514.9733589257357
1.41
0.070952
0.0001943
d
yr
n .699065289029671 9.6316e-05 deg/d
Q 1.7467054709434 0.00016044 AU
  Orbit Determination Parameters
   # obs. used (total)      53  
   data-arc span      4 days  
   first obs. used      2009-03-02  
   last obs. used      2009-03-06  
   planetary ephem.      DE405  
   SB-pert. ephem.      SB405-CPV-2  
   condition code      6  
   fit RMS      .58225  
   data source      ORB  
   producer      Otto Matic  
   solution date      2011-Sep-14 20:40:26  

Additional Information
 Earth MOID = .00186527 AU 
 T_jup = 5.028 
[ show covariance matrix ]

Ephemeris | Orbit Diagram | Orbital Elements | Physical Parameters | Close-Approach Data ]

Physical Parameter Table
Parameter Symbol Value Units Sigma Reference Notes
absolute magnitude H 26.378 mag .44475 8 autocmod 2.5a
rotation period rot_per 0.06363 h n/a Asteroid Lightcurve DataBase (Rev. 2013-May-01) Result based on less than full coverage, so that the period may be wrong by 30 percent or so.
Published Reference List:
[Birtwhistle, P.; Masiero, J. (2011) Minor Planet Bul. 38, 36-39.]

[ show close-approach data ]
Ephemeris | Orbit Diagram | Orbital Elements | Physical Parameters | Close-Approach Data ]
ABOUT SSD CREDITS/AWARDS PRIVACY/COPYRIGHT GLOSSARY LINKS
FirstGov 2013-May-22 06:32 UT
(server date/time)  
NASA Home Page
Site Manager:   Donald K. Yeomans
Webmaster  Alan B. Chamberlin